Location: Bli��� Lhota
(48.7570°N, 14.0120°E)
Time: 04:31:17
(UTC+00:00)

USA 234 - Pass Details

Date: 18 September 2020
Orbit: 1102 x 1106 km, 123.0° (Epoch: 16 October)

Event Time Altitude Azimuth Distance (km) Brightness Sun altitude
Rises 20:15:42 0° 56° (NE) 3,927 6.0 -28.8°
Enters shadow 20:16:06 - 56° (NE) 3,775 5.9 -28.9°
Exits shadow 20:19:21 16° 55° (NE) 2,527 5.0 -29.3°
Maximum altitude 20:24:45 81° 330° (NNW) 1,122 3.2 -29.9°
Drops below altitude 10° 20:31:17 10° 244° (WSW) 2,960 5.7 -30.7°
Sets 20:33:46 0° 244° (WSW) 3,917 6.4 -30.9°
